Location: Temiskaming Shores
(47.4794°N, 79.7121°W)
Time: 23:38:41
(UTC-04:00)

ISS - Visible Passes

Search period start: 25 September 2017 00:00
Search period end: 05 October 2017 00:00
Orbit: 401 x 407 km, 51.6° (Epoch: 26 September)

Date Brightness Start Highest point End Pass type
(mag) Time Alt. Az. Time Alt. Az. Time Alt. Az.
25 Sep -1.6 19:55:52 10° SSE 19:56:55 11° SE 19:57:35 11° ESE visible
25 Sep -1.2 21:29:36 10° SW 21:30:17 15° SW 21:30:17 15° SW visible
26 Sep -3.2 20:37:30 10° SW 20:40:34 37° SE 20:40:35 37° SE visible
27 Sep -2.4 19:45:43 10° SSW 19:48:21 23° SE 19:50:42 12° E visible
27 Sep -2.4 21:21:18 10° WSW 21:23:21 35° W 21:23:21 35° W visible
28 Sep -3.9 20:28:56 10° WSW 20:32:11 74° SSE 20:33:19 37° ENE visible
28 Sep -0.4 22:05:42 10° W 22:05:59 12° W 22:05:59 12° W visible
29 Sep -3.4 19:36:43 10° SW 19:39:52 45° SSE 19:43:01 10° ENE visible
29 Sep -2.7 21:13:08 10° W 21:15:48 43° NW 21:15:48 43° NW visible
30 Sep -3.6 20:20:37 10° WSW 20:23:52 66° NNW 20:25:32 26° ENE visible
30 Sep -0.6 21:57:34 10° WNW 21:58:11 14° WNW 21:58:11 14° WNW visible
01 Oct -3.8 19:28:09 10° WSW 19:31:26 85° SSE 19:34:44 10° ENE visible
01 Oct -2.6 21:05:01 10° WNW 21:07:50 38° NNW 21:07:50 38° NNW visible
02 Oct -3.0 20:12:25 10° W 20:15:34 45° NNW 20:17:26 21° NE visible
02 Oct -0.7 21:49:19 10° WNW 21:50:04 15° WNW 21:50:04 15° WNW visible
03 Oct -3.4 19:19:49 10° W 19:23:03 59° NNW 19:26:19 10° ENE visible
03 Oct -2.6 20:56:47 10° WNW 20:59:37 37° N 20:59:37 37° N visible
04 Oct -2.8 20:04:12 10° WNW 20:07:18 38° N 20:09:09 20° NE visible
04 Oct -0.8 21:40:55 10° WNW 21:41:47 17° WNW 21:41:47 17° WNW visible
